Regional Weather Roundup
Issued by NWS Northern Indiana

Home | Current Version | Previous Version | Graphics & Text | Print | Product List | Glossary On
Versions: 1 2 3 4 5 6 7 8 9 10 11 12 13 14 15 16 17 18 19 20 21 22 23 24 25 26 27 28 29 30 31 32 33 34 35 36 37 38 39 40 41 42 43 44 45 46 47 48 49 50
000
ASUS43 KIWX 222300
RWRIWX

KIWX WEATHER ROUNDUP
NATIONAL WEATHER SERVICE NORTHERN INDIANA
700 PM EDT WED MAR 22 2017

NOTE: "FAIR" INDICATES FEW OR NO CLOUDS BELOW 12,000 FEET WITH NO
SIGNIFICANT WEATHER AND/OR OBSTRUCTIONS TO VISIBILITY.

* THESE STATIONS ARE NOT UNDER NWS QUALITY CONTROL. THEY ALSO MAY NOT
  REPORT WEATHER SUCH AS PRECIPITATION OR FOG.

INZ001>027-230000-
NORTHERN INDIANA

CITY           SKY/WX    TMP DP  RH WIND       PRES   REMARKS
GARY*          PTSUNNY   32  18  55 NE9       30.53F WCI  24
MICHIGAN CITY* SUNNY     32  21  64 N7        30.51F WCI  26
KNOX*          SUNNY     37 -17   9 E9        30.49S
SOUTH BEND     SUNNY     37  11  34 E7        30.50F
ELKHART*       SUNNY     37  10  32 NE3       30.50F
GOSHEN         CLEAR     37  12  35 E6        30.50F
MONTICELLO*    SUNNY     38  15  40 E7        30.47F
ANGOLA*        CLEAR     36  16  44 CALM      30.50S
FORT WAYNE     PTCLDY    36  15  42 E12       30.50F
PERU/GRISSOM   SUNNY     37  15  40 E12       30.46F

$$
INZ028>050-230000-
CENTRAL INDIANA

CITY           SKY/WX    TMP DP  RH WIND       PRES   REMARKS
LAFAYETTE      SUNNY     37  18  46 E14       30.47F
KOKOMO*        SUNNY     36  20  52 E12       30.49F
MUNCIE*        CLEAR     38  21  50 NE12      30.48S
INDIANAPOLIS   MOSUNNY   39  17  41 E17       30.45S

$$
MIZ043>046-050>051-056>058-064>065-071>073-077>080-230000-
SOUTHWEST LOWER MICHIGAN

CITY           SKY/WX    TMP DP  RH WIND       PRES   REMARKS
BATTLE CREEK   CLEAR     36   8  31 VRB5      30.51S
BENTON HARBOR  SUNNY     32  17  54 N6        30.52F WCI  26
COLDWATER*     CLEAR     35   8  31 CALM      30.50S
HILLSDALE*     CLEAR     34  10  37 CALM      30.49R
HOLLAND        SUNNY     33  18  53 W8        30.53S WCI  26
GRAND RAPIDS   MOCLDY    35  11  36 SE6       30.52S WCI  30
KALAMAZOO      CLEAR     37   7  28 VRB5      30.51S
STURGIS*       CLEAR     35  11  37 SE6       30.49F WCI  30
THREE RIVERS*  FAIR      35  11  36 E3        30.51F

$$
OHZ001>008-015>018-024>025-230000-
NORTHWEST OHIO

CITY           SKY/WX    TMP DP  RH WIND       PRES   REMARKS
DEFIANCE       CLEAR     34  12  40 CALM      30.52F
FINDLAY        CLEAR     34  12  40 NE12G18   30.52S WCI  25
TOLEDO EXPRESS CLEAR     34  14  43 SE5       30.53S WCI  30
TOLEDO METCALF CLEAR     32  14  47 E7        30.55F WCI  26
LIMA           CLEAR     34  17  50 NE12      30.50S WCI  25

$$
AND FOR LAKE MICHIGAN COASTAL AND OPEN LAKE BUOY OBSERVATIONS

STATION/POSITION TEMP    WIND        PRES    VSBY  WAVE
                 AIR SEA DIR/SP/G                  HT/PER
                 (F)     (DEG/KT/KT) (MB)    (MI)  (FT/S)
CALUMET HARBOR    29      30/  7/ 11 1032.6
MICHIGAN CITY     29      20/ 12/ 13   N/A
BURNS HARBOR      30      40/ 11/ 13 1033.5F
SAINT JOSEPH      31      10/  9/ 12 1034.2

$$
&&




USA.gov is the U.S. government's official web portal to all federal, state and local government web resources and services.